Total_Precipitation_Accumulation
1.92 2.21 2.58 2.93 3.14 3.30 3.40 3.72 3.95 3.71 3.25 2.84 2.37 2.18 2.12 1.92 1.68 1.53 1.41 1.50 1.45 1.64 1.83 1.61 1.88 1.66 1.64 1.75 1.80 1.95 1.92 1.78 1.74 2.08 2.20 1.73 1.34 1.35 1.24 1.20 1.42 1.48 1.52
1.51 1.61 1.79 2.12 2.25 2.45 2.75 3.11 3.36 3.21 2.69 2.47 2.29 2.16 2.10 1.94 1.89 1.74 1.65 1.46 1.44 1.54 1.49 1.81 1.68 1.69 1.82 1.85 1.93 2.05 2.04 1.83 1.77 2.10 2.45 2.15 2.04 1.80 1.08 1.16 1.33 1.42 1.64
1.23 1.29 1.27 1.44 1.77 2.27 2.43 2.37 2.61 2.81 2.55 2.45 2.38 2.28 2.20 2.00 2.06 1.98 1.83 1.47 1.32 1.35 1.43 1.49 1.55 1.77 1.61 1.89 2.12 2.06 2.13 2.12 1.94 1.96 2.33 2.37 2.30 1.94 1.47 1.18 1.17 1.35 1.70
0.83 1.00 1.00 1.11 1.32 1.61 1.87 2.09 2.33 2.51 2.45 2.34 2.14 1.99 1.81 1.72 1.73 1.75 1.74 1.60 1.47 1.32 1.33 1.36 1.58 1.77 1.59 2.02 1.72 1.82 2.05 2.19 2.02 1.94 1.79 1.84 2.02 2.16 2.01 1.62 1.29 1.29 1.47
0.48 0.67 0.78 0.89 0.95 1.13 1.52 1.95 2.28 2.52 2.41 2.11 1.95 1.96 1.85 1.81 1.73 1.66 1.85 1.73 1.64 1.45 1.26 1.37 1.56 1.65 1.60 1.77 1.85 2.13 2.01 1.94 1.93 1.94 1.96 2.01 1.91 1.73 1.86 1.88 1.73 1.56 1.24
0.35 0.46 0.55 0.67 0.80 0.93 1.20 1.56 1.87 2.10 2.11 1.97 1.88 1.92 1.94 1.91 1.78 1.60 1.60 1.51 1.51 1.47 1.38 1.45 1.59 1.57 1.54 1.68 1.77 1.92 1.90 1.96 2.02 1.89 1.80 1.93 1.86 1.77 1.80 1.62 1.55 1.56 1.15
0.31 0.43 0.51 0.61 0.67 0.72 0.91 1.20 1.40 1.55 1.75 1.85 1.85 1.81 1.92 1.92 1.73 1.54 1.50 1.51 1.38 1.33 1.36 1.49 1.72 1.66 1.67 1.71 1.88 1.88 1.83 1.90 1.94 1.80 1.67 1.62 1.49 1.59 1.71 1.76 1.53 1.41 1.08
0.26 0.40 0.50 0.54 0.55 0.56 0.73 0.90 1.08 1.30 1.54 1.68 1.73 1.71 1.66 1.55 1.52 1.62 1.52 1.47 1.45 1.41 1.36 1.48 1.54 1.58 1.66 1.68 2.04 1.84 1.73 1.78 1.76 1.58 1.79 1.70 1.39 1.44 1.55 1.73 1.89 1.70 1.40
0.36 0.42 0.53 0.55 0.47 0.49 0.59 0.67 0.87 1.08 1.23 1.42 1.54 1.47 1.50 1.40 1.41 1.48 1.44 1.41 1.53 1.52 1.46 1.41 1.43 1.52 1.67 1.82 1.97 1.86 1.85 1.89 1.70 1.61 1.77 1.65 1.48 1.44 1.39 1.61 1.93 2.12 1.90
0.49 0.52 0.51 0.54 0.48 0.48 0.58 0.66 0.82 0.95 1.02 1.19 1.28 1.20 1.38 1.43 1.55 1.51 1.42 1.37 1.37 1.42 1.48 1.51 1.48 1.56 1.65 1.83 1.96 1.96 2.05 2.09 1.91 1.79 1.78 1.68 1.54 1.61 1.46 1.52 1.79 2.02 2.16
0.56 0.55 0.51 0.54 0.52 0.53 0.59 0.65 0.79 0.90 0.96 1.11 1.18 1.24 1.32 1.38 1.44 1.46 1.46 1.45 1.42 1.45 1.48 1.54 1.58 1.59 1.65 1.82 1.93 1.81 2.02 2.13 2.17 1.97 1.88 1.82 1.82 1.82 1.68 1.69 1.79 1.86 2.08
0.42 0.50 0.53 0.60 0.52 0.55 0.59 0.63 0.73 0.82 0.89 1.08 1.23 1.29 1.42 1.46 1.41 1.41 1.60 1.63 1.60 1.57 1.57 1.63 1.72 1.71 1.73 1.85 1.81 1.68 1.76 1.95 2.13 2.31 2.37 2.14 2.06 2.02 1.87 1.84 1.81 1.85 2.02
0.44 0.54 0.62 0.61 0.55 0.56 0.62 0.66 0.73 0.80 0.87 1.01 1.15 1.32 1.40 1.47 1.55 1.68 1.84 1.93 1.86 1.81 1.83 1.87 1.83 1.85 1.89 1.85 1.75 1.75 1.80 1.90 1.98 2.16 2.34 2.34 2.42 2.19 2.13 2.04 1.96 1.91 1.88
0.44 0.49 0.68 0.71 0.61 0.57 0.62 0.67 0.78 0.87 0.98 1.16 1.31 1.42 1.61 1.74 1.81 1.82 1.92 1.95 1.95 1.98 1.98 2.01 1.95 1.93 1.97 1.94 1.89 1.87 1.87 1.93 1.93 1.95 2.01 2.14 2.39 2.37 2.36 2.21 2.18 2.18 2.15
0.50 0.61 0.75 0.88 0.86 0.79 0.73 0.77 0.94 1.10 1.30 1.51 1.54 1.57 1.70 1.83 1.98 2.14 2.18 2.17 2.16 2.10 2.20 2.18 2.09 2.06 2.07 1.93 2.03 2.19 2.17 2.23 2.07 1.97 1.91 1.90 2.13 2.22 2.22 2.00 2.06 2.22 2.27
0.60 0.65 0.84 1.02 1.11 1.13 1.11 1.16 1.29 1.50 1.76 2.02 2.12 2.20 2.28 2.37 2.44 2.51 2.52 2.55 2.51 2.44 2.34 2.23 2.23 2.21 2.02 2.14 2.20 2.11 2.15 2.31 2.31 2.19 2.11 2.00 1.96 1.95 1.98 2.02 2.05 2.12 2.11
0.77 0.81 0.96 1.08 1.22 1.27 1.35 1.49 1.65 1.86 2.06 2.20 2.30 2.41 2.47 2.59 2.68 2.73 2.73 2.61 2.54 2.47 2.34 2.31 2.32 2.25 2.29 2.25 2.02 1.88 1.90 1.96 2.05 2.12 2.11 1.90 1.77 1.91 1.85 2.01 2.03 1.90 1.83
0.90 0.92 1.01 1.12 1.20 1.34 1.50 1.66 1.75 1.88 2.18 2.36 2.42 2.45 2.47 2.53 2.68 2.82 2.73 2.56 2.49 2.43 2.37 2.33 2.21 2.14 2.09 2.10 1.87 1.84 1.77 1.73 1.70 1.81 1.91 1.88 1.79 1.80 1.87 1.81 1.62 1.49 1.49
0.92 0.97 1.08 1.18 1.29 1.34 1.40 1.43 1.50 1.66 1.89 2.10 2.24 2.23 2.34 2.52 2.60 2.61 2.59 2.58 2.52 2.35 2.23 2.12 2.06 2.01 2.05 2.19 1.97 1.87 1.74 1.77 1.65 1.63 1.62 1.62 1.53 1.63 1.66 1.57 1.41 1.30 1.27
0.92 1.03 1.16 1.23 1.24 1.25 1.27 1.33 1.45 1.66 1.87 2.07 2.25 2.36 2.45 2.58 2.61 2.63 2.70 2.68 2.59 2.54 2.50 2.35 2.25 2.17 2.13 2.26 2.00 1.84 1.70 1.74 1.71 1.69 1.70 1.74 1.55 1.46 1.36 1.29 1.30 1.16 1.08
0.93 1.02 1.17 1.30 1.30 1.31 1.44 1.55 1.67 1.82 1.98 2.07 2.15 2.26 2.37 2.51 2.69 2.84 2.77 2.72 2.66 2.56 2.39 2.22 2.11 2.06 2.04 2.03 1.82 1.66 1.50 1.50 1.52 1.44 1.39 1.47 1.50 1.29 1.13 1.10 1.09 1.03 1.03
0.83 1.00 1.13 1.27 1.40 1.51 1.65 1.77 1.79 1.84 1.98 2.14 2.19 2.23 2.35 2.37 2.44 2.52 2.50 2.48 2.48 2.45 2.39 2.34 2.28 2.21 2.08 1.85 1.63 1.46 1.34 1.34 1.33 1.43 1.45 1.53 1.57 1.30 1.13 0.98 0.89 0.91 0.87
0.91 1.01 1.13 1.26 1.36 1.52 1.68 1.82 1.90 1.96 2.04 2.11 2.20 2.30 2.34 2.36 2.44 2.55 2.56 2.49 2.42 2.36 2.27 2.18 2.01 1.99 2.02 1.94 1.69 1.43 1.31 1.29 1.24 1.45 1.72 1.74 1.69 1.46 1.19 1.07 1.05 0.96 0.84
1.10 1.13 1.19 1.26 1.35 1.44 1.59 1.76 1.87 1.91 2.01 2.07 2.11 2.23 2.34 2.43 2.53 2.54 2.45 2.31 2.16 2.08 2.02 1.91 1.82 1.81 1.85 1.76 1.69 1.54 1.41 1.39 1.35 1.43 1.66 1.79 1.80 1.68 1.49 1.39 1.29 1.07 0.98
1.15 1.18 1.23 1.30 1.35 1.42 1.49 1.69 1.88 1.94 1.95 2.06 2.11 2.09 2.10 2.16 2.24 2.28 2.25 2.12 2.00 1.90 1.84 1.73 1.70 1.68 1.67 1.69 1.67 1.49 1.38 1.33 1.36 1.49 1.72 1.86 1.96 1.97 1.90 1.77 1.66 1.52 1.37
1.22 1.22 1.23 1.27 1.33 1.44 1.55 1.63 1.86 2.08 2.12 2.09 1.97 1.87 1.77 1.74 1.76 1.76 1.80 1.91 1.81 1.79 1.65 1.54 1.48 1.45 1.47 1.48 1.41 1.30 1.24 1.27 1.36 1.43 1.58 1.81 2.00 2.06 2.14 2.15 2.04 1.82 1.62